| time (UTC) | temp F | wind direction | speed knots | gust knots | rain 1hr in | rain 24hr in | rain mn in | humidity % | barometer mb |
| 20260901002506 | 78 | 52 | 2.6 | 5.2 | 0.00 | 0.00 | 0.00 | 83 | 1018.2 |
| 20260901002014 | 78 | 72 | 1.7 | 5.2 | 0.00 | 0.00 | 0.00 | 83 | 1018.2 |
| 20260901001536 | 79 | 46 | 1.7 | 4.3 | 0.00 | 0.00 | 0.00 | 83 | 1018.2 |
| 20260901001013 | 79 | 78 | 1.7 | 4.3 | 0.00 | 0.00 | 0.00 | 83 | 1018.1 |
| 20260901000509 | 79 | 69 | 0.9 | 3.5 | 0.00 | 0.00 | 0.00 | 82 | 1018.1 |
| 20260901000028 | 80 | 101 | 1.7 | 3.5 | 0.00 | 0.00 | 0.00 | 82 | 1018.2 |
| 20260831235517 | 80 | 80 | 0.9 | 2.6 | 0.00 | 0.00 | 0.00 | 82 | 1018.2 |
| 20260831235014 | 80 | 80 | 0.9 | 2.6 | 0.00 | 0.00 | 0.00 | 81 | 1018.3 |
| 20260831234524 | 81 | 80 | 0.0 | 1.7 | 0.00 | 0.00 | 0.00 | 80 | 1018.4 |
| 20260831234014 | 81 | 80 | 0.9 | 1.7 | 0.00 | 0.00 | 0.00 | 79 | 1018.4 |
| 20260831233516 | 82 | 80 | 0.0 | 1.7 | 0.00 | 0.00 | 0.00 | 79 | 1018.4 |
| 20260831233016 | 82 | 80 | 0.0 | 2.6 | 0.00 | 0.00 | 0.00 | 78 | 1018.3 |
| 20260831232508 | 82 | 80 | 0.0 | 2.6 | 0.00 | 0.00 | 0.00 | 77 | 1018.4 |
| 20260831232009 | 82 | 80 | 0.0 | 0.0 | 0.00 | 0.00 | 0.00 | 77 | 1018.4 |
| 20260831231526 | 83 | 80 | 0.0 | 1.7 | 0.00 | 0.00 | 0.00 | 77 | 1018.4 |
| 20260831231011 | 83 | 80 | 0.0 | 1.7 | 0.00 | 0.00 | 0.00 | 77 | 1018.4 |
| 20260831230512 | 83 | 80 | 0.9 | 1.7 | 0.00 | 0.00 | 0.00 | 77 | 1018.3 |
| 20260831230028 | 83 | 80 | 0.0 | 1.7 | 0.00 | 0.00 | 0.00 | 76 | 1018.3 |
| 20260831225521 | 84 | 80 | 0.0 | 0.9 | 0.00 | 0.00 | 0.00 | 74 | 1018.2 |
| 20260831225013 | 84 | 80 | 0.0 | 1.7 | 0.00 | 0.00 | 0.00 | 76 | 1018.3 |
| 20260831224530 | 84 | 80 | 0.0 | 1.7 | 0.00 | 0.00 | 0.00 | 74 | 1018.3 |
| 20260831224020 | 84 | 80 | 0.0 | 1.7 | 0.00 | 0.00 | 0.00 | 73 | 1018.2 |
| 20260831223510 | 85 | 80 | 0.0 | 2.6 | 0.00 | 0.00 | 0.00 | 72 | 1018.2 |
| 20260831223030 | 85 | 80 | 0.9 | 2.6 | 0.00 | 0.00 | 0.00 | 71 | 1018.3 |
| 20260831222517 | 85 | 80 | 0.0 | 1.7 | 0.00 | 0.00 | 0.00 | 71 | 1018.3 |
| 20260831222017 | 85 | 80 | 0.0 | 0.9 | 0.00 | 0.00 | 0.00 | 69 | 1018.1 |
| 20260831221524 | 86 | 127 | 0.0 | 0.0 | 0.00 | 0.00 | 0.00 | 70 | 1018.2 |
| 20260831221009 | 86 | 127 | 0.0 | 0.0 | 0.00 | 0.00 | 0.00 | 70 | 1018.2 |
| 20260831220513 | 85 | 127 | 0.0 | 0.0 | 0.00 | 0.00 | 0.00 | 71 | 1018.3 |
| 20260831220027 | 85 | 127 | 0.0 | 1.7 | 0.00 | 0.00 | 0.00 | 68 | 1018.3 |
| 20260831215513 | 86 | 127 | 0.0 | 1.7 | 0.00 | 0.00 | 0.00 | 69 | 1018.5 |
| 20260831215014 | 86 | 116 | 0.0 | 2.6 | 0.00 | 0.00 | 0.00 | 69 | 1018.4 |
| 20260831214530 | 85 | 116 | 0.0 | 3.5 | 0.00 | 0.00 | 0.00 | 69 | 1018.4 |
| 20260831214012 | 85 | 116 | 0.0 | 5.2 | 0.00 | 0.00 | 0.00 | 70 | 1018.4 |
| 20260831213516 | 85 | 120 | 0.0 | 5.2 | 0.00 | 0.00 | 0.00 | 70 | 1018.5 |
| 20260831213034 | 85 | 110 | 0.9 | 3.5 | 0.00 | 0.00 | 0.00 | 70 | 1018.6 |
| 20260831212519 | 84 | 96 | 0.9 | 3.5 | 0.00 | 0.00 | 0.00 | 71 | 1018.7 |
| 20260831212015 | 84 | 135 | 0.0 | 3.5 | 0.00 | 0.00 | 0.00 | 73 | 1018.7 |
| 20260831211531 | 84 | 125 | 0.9 | 6.1 | 0.00 | 0.00 | 0.00 | 73 | 1018.6 |
| 20260831211021 | 84 | 97 | 1.7 | 6.1 | 0.00 | 0.00 | 0.00 | 73 | 1018.5 |
| 20260831210517 | 84 | 94 | 2.6 | 6.1 | 0.00 | 0.00 | 0.00 | 73 | 1018.4 |
| 20260831210028 | 83 | 109 | 2.6 | 6.1 | 0.00 | 0.00 | 0.00 | 73 | 1018.4 |
| 20260831205510 | 83 | 101 | 0.9 | 2.6 | 0.00 | 0.00 | 0.00 | 74 | 1018.3 |
| 20260831205012 | 84 | 101 | 0.9 | 2.6 | 0.00 | 0.00 | 0.00 | 73 | 1018.2 |
| 20260831204530 | 84 | 101 | 0.0 | 1.7 | 0.00 | 0.00 | 0.00 | 71 | 1018.1 |
| 20260831204004 | 84 | 101 | 0.0 | 2.6 | 0.00 | 0.00 | 0.00 | 72 | 1018.1 |
| 20260831203504 | 84 | 101 | 0.0 | 4.3 | 0.00 | 0.00 | 0.00 | 70 | 1018.2 |
| 20260831203004 | 84 | 89 | 0.9 | 6.1 | 0.00 | 0.00 | 0.00 | 68 | 1018.1 |
| 20260831202502 | 85 | 76 | 2.6 | 6.1 | 0.00 | 0.00 | 0.00 | 66 | 1018.0 |
| 20260831202003 | 85 | 63 | 2.6 | 7.0 | 0.00 | 0.00 | 0.00 | 65 | 1018.0 |
| 20260831201516 | 86 | 84 | 2.6 | 8.7 | 0.00 | 0.00 | 0.00 | 64 | 1018.3 |
| 20260831201002 | 86 | 126 | 3.5 | 8.7 | 0.00 | 0.00 | 0.00 | 63 | 1018.3 |
| 20260831200504 | 87 | 85 | 4.3 | 7.8 | 0.00 | 0.00 | 0.00 | 64 | 1018.3 |
| 20260831200013 | 87 | 97 | 3.5 | 7.8 | 0.00 | 0.00 | 0.00 | 63 | 1018.5 |
| 20260831195510 | 87 | 49 | 2.6 | 7.8 | 0.00 | 0.00 | 0.00 | 63 | 1018.5 |
| 20260831195002 | 86 | 76 | 3.5 | 9.6 | 0.00 | 0.00 | 0.00 | 63 | 1018.6 |
| 20260831194505 | 86 | 96 | 3.5 | 9.6 | 0.00 | 0.00 | 0.00 | 65 | 1018.6 |
| 20260831194002 | 87 | 114 | 1.7 | 9.6 | 0.00 | 0.00 | 0.00 | 66 | 1018.7 |
| 20260831193503 | 87 | 93 | 1.7 | 7.8 | 0.00 | 0.00 | 0.00 | 65 | 1018.8 |
| 20260831193006 | 87 | 109 | 1.7 | 7.0 | 0.00 | 0.00 | 0.00 | 64 | 1018.8 |
| 20260831192503 | 87 | 152 | 2.6 | 7.0 | 0.00 | 0.00 | 0.00 | 63 | 1018.9 |
| 20260831192005 | 87 | 168 | 3.5 | 8.7 | 0.00 | 0.00 | 0.00 | 63 | 1018.9 |
| 20260831191504 | 87 | 71 | 2.6 | 8.7 | 0.00 | 0.00 | 0.00 | 66 | 1018.9 |
| 20260831191003 | 88 | 132 | 1.7 | 7.8 | 0.00 | 0.00 | 0.00 | 67 | 1019.0 |
| 20260831190504 | 88 | 94 | 2.6 | 8.7 | 0.00 | 0.00 | 0.00 | 63 | 1019.1 |
| 20260831190016 | 88 | 132 | 3.5 | 8.7 | 0.00 | 0.00 | 0.00 | 64 | 1019.2 |
| 20260831185503 | 87 | 101 | 3.5 | 7.8 | 0.00 | 0.00 | 0.00 | 66 | 1019.2 |
| 20260831185004 | 88 | 159 | 1.7 | 6.1 | 0.00 | 0.00 | 0.00 | 67 | 1019.3 |
| 20260831184519 | 88 | 59 | 2.6 | 5.2 | 0.00 | 0.00 | 0.00 | 66 | 1019.3 |
| 20260831184004 | 88 | 103 | 1.7 | 7.8 | 0.00 | 0.00 | 0.00 | 68 | 1019.3 |
| 20260831183506 | 87 | 99 | 1.7 | 7.8 | 0.00 | 0.00 | 0.00 | 71 | 1019.3 |
| 20260831183006 | 87 | 95 | 4.3 | 10.4 | 0.00 | 0.00 | 0.00 | 67 | 1019.4 |
| 20260831182504 | 86 | 122 | 2.6 | 10.4 | 0.00 | 0.00 | 0.00 | 67 | 1019.4 |
| 20260831182003 | 86 | 78 | 1.7 | 7.8 | 0.00 | 0.00 | 0.00 | 68 | 1019.5 |
| 20260831181508 | 86 | 97 | 3.5 | 8.7 | 0.00 | 0.00 | 0.00 | 68 | 1019.5 |
| 20260831181003 | 85 | 126 | 4.3 | 8.7 | 0.00 | 0.00 | 0.00 | 67 | 1019.5 |
| 20260831180503 | 85 | 50 | 5.2 | 8.7 | 0.00 | 0.00 | 0.00 | 69 | 1019.5 |
| 20260831180015 | 84 | 107 | 3.5 | 7.8 | 0.00 | 0.00 | 0.00 | 70 | 1019.6 |
| 20260831175508 | 84 | 104 | 1.7 | 7.8 | 0.00 | 0.00 | 0.00 | 72 | 1019.6 |
| 20260831175011 | 84 | 103 | 5.2 | 7.8 | 0.00 | 0.00 | 0.00 | 70 | 1019.6 |
| 20260831174508 | 84 | 128 | 2.6 | 6.1 | 0.00 | 0.00 | 0.00 | 70 | 1019.6 |
| 20260831174007 | 84 | 90 | 0.9 | 7.8 | 0.00 | 0.00 | 0.00 | 70 | 1019.6 |
| 20260831173510 | 84 | 69 | 2.6 | 7.8 | 0.00 | 0.00 | 0.00 | 69 | 1019.7 |
| 20260831173027 | 85 | 78 | 3.5 | 7.0 | 0.00 | 0.00 | 0.00 | 68 | 1019.6 |
| 20260831172505 | 85 | 84 | 2.6 | 9.6 | 0.00 | 0.00 | 0.00 | 68 | 1019.7 |
| 20260831172006 | 85 | 105 | 4.3 | 9.6 | 0.00 | 0.00 | 0.00 | 66 | 1019.6 |
| 20260831171506 | 86 | 105 | 5.2 | 8.7 | 0.00 | 0.00 | 0.00 | 67 | 1019.7 |
| 20260831171003 | 85 | 102 | 3.5 | 8.7 | 0.00 | 0.00 | 0.00 | 68 | 1019.7 |
| 20260831170503 | 85 | 110 | 2.6 | 9.6 | 0.00 | 0.00 | 0.00 | 67 | 1019.8 |
| 20260831170012 | 85 | 85 | 4.3 | 9.6 | 0.00 | 0.00 | 0.00 | 66 | 1019.8 |
| 20260831165506 | 85 | 106 | 3.5 | 8.7 | 0.00 | 0.00 | 0.00 | 68 | 1019.9 |
| 20260831165004 | 85 | 136 | 3.5 | 8.7 | 0.00 | 0.00 | 0.00 | 66 | 1019.9 |
| 20260831164519 | 85 | 67 | 4.3 | 8.7 | 0.00 | 0.00 | 0.00 | 65 | 1019.9 |
| 20260831164010 | 85 | 112 | 3.5 | 7.0 | 0.00 | 0.00 | 0.00 | 65 | 1019.8 |
| 20260831163510 | 85 | 86 | 2.6 | 7.0 | 0.00 | 0.00 | 0.00 | 66 | 1019.8 |
| 20260831163008 | 85 | 113 | 3.5 | 7.8 | 0.00 | 0.00 | 0.00 | 65 | 1019.8 |
| 20260831162508 | 85 | 15 | 3.5 | 7.8 | 0.00 | 0.00 | 0.00 | 65 | 1019.8 |
| 20260831162012 | 85 | 48 | 1.7 | 6.1 | 0.00 | 0.00 | 0.00 | 69 | 1019.8 |
| 20260831161533 | 84 | 69 | 2.6 | 5.2 | 0.00 | 0.00 | 0.00 | 71 | 1019.9 |
| 20260831161008 | 84 | 58 | 1.7 | 5.2 | 0.00 | 0.00 | 0.00 | 71 | 1019.9 |
| 20260831160510 | 83 | 71 | 0.9 | 6.1 | 0.00 | 0.00 | 0.00 | 73 | 1019.8 |
| 20260831160037 | 83 | 69 | 1.7 | 6.1 | 0.00 | 0.00 | 0.00 | 72 | 1019.8 |
| 20260831155505 | 82 | 17 | 0.9 | 6.1 | 0.00 | 0.00 | 0.00 | 73 | 1019.8 |
| 20260831155004 | 81 | 19 | 1.7 | 6.1 | 0.00 | 0.00 | 0.00 | 74 | 1019.8 |
| 20260831154540 | 81 | 56 | 3.5 | 5.2 | 0.00 | 0.00 | 0.00 | 77 | 1019.9 |
| 20260831154007 | 81 | 31 | 0.9 | 5.2 | 0.00 | 0.00 | 0.00 | 77 | 1019.9 |
| 20260831153505 | 80 | 46 | 2.6 | 5.2 | 0.00 | 0.00 | 0.00 | 78 | 1019.9 |
| 20260831153019 | 80 | 73 | 1.7 | 7.0 | 0.00 | 0.00 | 0.00 | 81 | 1019.9 |
| 20260831152511 | 79 | 61 | 1.7 | 7.0 | 0.00 | 0.00 | 0.00 | 81 | 1020.0 |
| 20260831152010 | 78 | 96 | 0.9 | 7.0 | 0.00 | 0.00 | 0.00 | 84 | 1020.0 |
| 20260831151520 | 77 | 80 | 2.6 | 6.1 | 0.00 | 0.00 | 0.00 | 84 | 1020.1 |
| 20260831151014 | 76 | 18 | 0.0 | 3.5 | 0.00 | 0.00 | 0.00 | 87 | 1020.0 |
| 20260831150513 | 75 | 352 | 1.7 | 3.5 | 0.00 | 0.00 | 0.00 | 88 | 1020.1 |
| 20260831150011 | 75 | 67 | 1.7 | 3.5 | 0.00 | 0.00 | 0.00 | 89 | 1020.1 |
| 20260831145507 | 74 | 30 | 0.9 | 3.5 | 0.00 | 0.00 | 0.00 | 89 | 1020.1 |
| 20260831145019 | 74 | 42 | 0.9 | 3.5 | 0.00 | 0.00 | 0.00 | 90 | 1020.2 |
| 20260831144534 | 74 | 61 | 1.7 | 3.5 | 0.00 | 0.00 | 0.00 | 90 | 1020.2 |
| 20260831144006 | 74 | 34 | 1.7 | 3.5 | 0.00 | 0.00 | 0.00 | 90 | 1020.2 |
| 20260831143508 | 74 | 44 | 0.9 | 3.5 | 0.00 | 0.00 | 0.00 | 90 | 1020.1 |
| 20260831143016 | 74 | 59 | 0.9 | 3.5 | 0.00 | 0.00 | 0.00 | 90 | 1020.1 |
| 20260831142508 | 73 | 40 | 0.9 | 3.5 | 0.00 | 0.00 | 0.00 | 90 | 1020.0 |
| 20260831142011 | 73 | 80 | 0.9 | 4.3 | 0.00 | 0.00 | 0.00 | 91 | 1020.0 |
| 20260831141523 | 73 | 58 | 1.7 | 4.3 | 0.00 | 0.00 | 0.00 | 91 | 1020.0 |
| 20260831141013 | 73 | 52 | 1.7 | 4.3 | 0.00 | 0.00 | 0.00 | 92 | 1020.0 |
| 20260831140508 | 73 | 28 | 1.7 | 3.5 | 0.00 | 0.00 | 0.00 | 92 | 1020.0 |
| 20260831140029 | 72 | 28 | 0.9 | 3.5 | 0.00 | 0.00 | 0.00 | 92 | 1020.0 |
| 20260831135516 | 72 | 98 | 0.9 | 3.5 | 0.00 | 0.00 | 0.00 | 92 | 1019.9 |
| 20260831135012 | 72 | 51 | 0.0 | 1.7 | 0.00 | 0.00 | 0.00 | 92 | 1019.9 |
| 20260831134525 | 72 | 51 | 0.0 | 0.9 | 0.00 | 0.00 | 0.00 | 92 | 1019.9 |
| 20260831134011 | 72 | 51 | 0.0 | 2.6 | 0.00 | 0.00 | 0.00 | 92 | 1019.9 |
| 20260831133513 | 72 | 51 | 0.0 | 2.6 | 0.00 | 0.00 | 0.00 | 92 | 1019.9 |
| 20260831133019 | 72 | 51 | 0.9 | 2.6 | 0.00 | 0.00 | 0.00 | 93 | 1019.8 |
| 20260831132513 | 72 | 5 | 0.9 | 3.5 | 0.00 | 0.00 | 0.00 | 93 | 1019.8 |
| 20260831132006 | 71 | 5 | 0.9 | 3.5 | 0.00 | 0.00 | 0.00 | 93 | 1019.8 |
| 20260831131521 | 71 | 348 | 0.9 | 3.5 | 0.00 | 0.00 | 0.00 | 93 | 1019.8 |
| 20260831131013 | 71 | 319 | 0.0 | 4.3 | 0.00 | 0.00 | 0.00 | 93 | 1019.9 |
| 20260831130510 | 71 | 346 | 0.0 | 4.3 | 0.00 | 0.00 | 0.00 | 94 | 1020.0 |
| 20260831130028 | 71 | 360 | 0.9 | 3.5 | 0.00 | 0.00 | 0.00 | 94 | 1020.0 |
| 20260831125513 | 70 | 20 | 0.0 | 3.5 | 0.00 | 0.00 | 0.00 | 94 | 1019.9 |
| 20260831125010 | 70 | 9 | 0.0 | 2.6 | 0.00 | 0.00 | 0.00 | 94 | 1019.9 |
| 20260831124529 | 70 | 27 | 0.9 | 2.6 | 0.00 | 0.00 | 0.00 | 95 | 1019.9 |
| 20260831124013 | 70 | 329 | 0.0 | 1.7 | 0.00 | 0.00 | 0.00 | 94 | 1019.8 |
| 20260831123509 | 70 | 329 | 0.0 | 1.7 | 0.00 | 0.00 | 0.00 | 95 | 1019.8 |
| 20260831123026 | 70 | 329 | 0.0 | 1.7 | 0.00 | 0.00 | 0.00 | 95 | 1019.8 |
| 20260831122516 | 70 | 329 | 0.0 | 1.7 | 0.00 | 0.00 | 0.00 | 95 | 1019.8 |
| 20260831122015 | 69 | 20 | 0.0 | 1.7 | 0.00 | 0.00 | 0.00 | 95 | 1019.8 |
| 20260831121518 | 69 | 20 | 0.9 | 1.7 | 0.00 | 0.00 | 0.00 | 95 | 1019.9 |
| 20260831121015 | 69 | 20 | 0.0 | 1.7 | 0.00 | 0.00 | 0.00 | 95 | 1019.9 |
| 20260831120516 | 69 | 20 | 0.0 | 2.6 | 0.00 | 0.00 | 0.00 | 95 | 1020.0 |
| 20260831120031 | 69 | 20 | 0.0 | 2.6 | 0.00 | 0.00 | 0.00 | 95 | 1019.9 |
| 20260831115513 | 69 | 360 | 0.9 | 2.6 | 0.00 | 0.00 | 0.00 | 95 | 1019.9 |
| 20260831115010 | 69 | 360 | 0.9 | 2.6 | 0.00 | 0.00 | 0.00 | 95 | 1019.9 |
| 20260831114543 | 69 | 360 | 0.0 | 2.6 | 0.00 | 0.00 | 0.00 | 95 | 1019.9 |
| 20260831114010 | 69 | 5 | 0.9 | 2.6 | 0.00 | 0.00 | 0.00 | 95 | 1019.9 |
| 20260831113514 | 69 | 29 | 0.0 | 3.5 | 0.00 | 0.00 | 0.00 | 94 | 1019.9 |
| 20260831113033 | 69 | 11 | 0.9 | 3.5 | 0.00 | 0.00 | 0.00 | 94 | 1019.9 |
| 20260831112508 | 69 | 22 | 0.9 | 2.6 | 0.00 | 0.00 | 0.00 | 94 | 1019.9 |
| 20260831112012 | 69 | 23 | 0.9 | 2.6 | 0.00 | 0.00 | 0.00 | 94 | 1019.7 |
| 20260831111513 | 69 | 33 | 0.9 | 2.6 | 0.00 | 0.00 | 0.00 | 94 | 1019.7 |
| 20260831111009 | 69 | 13 | 0.0 | 3.5 | 0.00 | 0.00 | 0.00 | 94 | 1019.6 |
| 20260831110510 | 69 | 22 | 0.9 | 4.3 | 0.00 | 0.00 | 0.00 | 94 | 1019.5 |
| 20260831110019 | 69 | 360 | 0.9 | 4.3 | 0.00 | 0.00 | 0.00 | 94 | 1019.5 |
| 20260831105511 | 69 | 13 | 0.9 | 3.5 | 0.00 | 0.00 | 0.00 | 94 | 1019.4 |
| 20260831105008 | 69 | 360 | 0.9 | 2.6 | 0.00 | 0.00 | 0.00 | 94 | 1019.3 |
| 20260831104535 | 69 | 18 | 0.9 | 2.6 | 0.00 | 0.00 | 0.00 | 94 | 1019.4 |
| 20260831104015 | 69 | 9 | 0.9 | 2.6 | 0.00 | 0.00 | 0.00 | 94 | 1019.3 |
| 20260831103514 | 69 | 360 | 0.0 | 2.6 | 0.00 | 0.00 | 0.00 | 93 | 1019.3 |
| 20260831103023 | 69 | 11 | 0.9 | 2.6 | 0.00 | 0.00 | 0.00 | 93 | 1019.3 |
| 20260831102514 | 69 | 22 | 0.0 | 2.6 | 0.00 | 0.00 | 0.00 | 93 | 1019.3 |
| 20260831102018 | 69 | 360 | 0.9 | 2.6 | 0.00 | 0.00 | 0.00 | 93 | 1019.4 |
| 20260831101521 | 69 | 322 | 0.9 | 2.6 | 0.00 | 0.00 | 0.00 | 93 | 1019.3 |
| 20260831101013 | 69 | 328 | 0.9 | 2.6 | 0.00 | 0.00 | 0.00 | 93 | 1019.2 |
| 20260831100516 | 69 | 317 | 0.9 | 2.6 | 0.00 | 0.00 | 0.00 | 93 | 1019.1 |
| 20260831100032 | 69 | 318 | 0.9 | 3.5 | 0.00 | 0.00 | 0.00 | 93 | 1019.1 |
| 20260831095506 | 69 | 341 | 0.9 | 3.5 | 0.00 | 0.00 | 0.00 | 93 | 1019.1 |
| 20260831095013 | 69 | 331 | 0.9 | 4.3 | 0.00 | 0.00 | 0.00 | 93 | 1019.0 |
| 20260831094538 | 69 | 320 | 0.9 | 4.3 | 0.00 | 0.00 | 0.00 | 93 | 1019.0 |
| 20260831094010 | 69 | 298 | 0.9 | 3.5 | 0.00 | 0.00 | 0.00 | 93 | 1018.9 |
| 20260831093511 | 69 | 321 | 0.0 | 3.5 | 0.00 | 0.00 | 0.00 | 93 | 1019.0 |
| 20260831093031 | 69 | 5 | 0.9 | 3.5 | 0.00 | 0.00 | 0.00 | 93 | 1019.1 |
| 20260831092516 | 70 | 306 | 0.9 | 4.3 | 0.00 | 0.00 | 0.00 | 93 | 1019.1 |
| 20260831092005 | 69 | 324 | 1.7 | 4.3 | 0.00 | 0.00 | 0.00 | 93 | 1019.1 |
| 20260831091538 | 70 | 310 | 0.9 | 3.5 | 0.00 | 0.00 | 0.00 | 92 | 1019.2 |
| 20260831091014 | 69 | 306 | 0.9 | 3.5 | 0.00 | 0.00 | 0.00 | 92 | 1019.2 |
| 20260831090518 | 70 | 299 | 0.9 | 6.1 | 0.00 | 0.00 | 0.00 | 92 | 1019.2 |
| 20260831090023 | 69 | 325 | 1.7 | 6.1 | 0.00 | 0.00 | 0.00 | 92 | 1019.1 |
| 20260831085518 | 69 | 323 | 2.6 | 4.3 | 0.00 | 0.00 | 0.00 | 92 | 1019.2 |
| 20260831085016 | 69 | 323 | 0.9 | 3.5 | 0.00 | 0.00 | 0.00 | 92 | 1019.2 |
| 20260831084536 | 70 | 292 | 1.7 | 4.3 | 0.00 | 0.00 | 0.00 | 92 | 1019.2 |
| 20260831084003 | 70 | 308 | 1.7 | 4.3 | 0.00 | 0.00 | 0.00 | 92 | 1019.2 |
| 20260831083504 | 70 | 310 | 2.6 | 4.3 | 0.00 | 0.00 | 0.00 | 92 | 1019.3 |
| 20260831083012 | 70 | 325 | 1.7 | 4.3 | 0.00 | 0.00 | 0.00 | 92 | 1019.3 |
| 20260831082510 | 70 | 309 | 0.9 | 4.3 | 0.00 | 0.00 | 0.00 | 92 | 1019.2 |
| 20260831082006 | 70 | 301 | 1.7 | 4.3 | 0.00 | 0.00 | 0.00 | 92 | 1019.2 |
| 20260831081507 | 70 | 322 | 1.7 | 4.3 | 0.00 | 0.00 | 0.00 | 92 | 1019.2 |
| 20260831081005 | 70 | 314 | 0.9 | 4.3 | 0.00 | 0.00 | 0.00 | 92 | 1019.2 |
| 20260831080504 | 70 | 319 | 1.7 | 4.3 | 0.00 | 0.00 | 0.00 | 92 | 1019.2 |
| 20260831080009 | 70 | 332 | 1.7 | 4.3 | 0.00 | 0.00 | 0.00 | 92 | 1019.2 |
| 20260831075505 | 70 | 314 | 1.7 | 6.1 | 0.00 | 0.00 | 0.00 | 91 | 1019.2 |
| 20260831075006 | 70 | 311 | 3.5 | 6.1 | 0.00 | 0.00 | 0.00 | 91 | 1019.2 |
| 20260831074504 | 70 | 308 | 1.7 | 4.3 | 0.00 | 0.00 | 0.00 | 91 | 1019.2 |
| 20260831074005 | 70 | 305 | 1.7 | 4.3 | 0.00 | 0.00 | 0.00 | 91 | 1019.1 |
| 20260831073506 | 70 | 311 | 1.7 | 4.3 | 0.00 | 0.00 | 0.00 | 91 | 1019.2 |
| 20260831073024 | 70 | 302 | 1.7 | 7.0 | 0.00 | 0.00 | 0.00 | 91 | 1019.2 |
| 20260831072505 | 70 | 289 | 1.7 | 7.0 | 0.00 | 0.00 | 0.00 | 91 | 1019.2 |
| 20260831072004 | 70 | 305 | 1.7 | 4.3 | 0.00 | 0.00 | 0.00 | 91 | 1019.2 |
| 20260831071518 | 70 | 311 | 1.7 | 5.2 | 0.00 | 0.00 | 0.00 | 91 | 1019.2 |
| 20260831071014 | 70 | 306 | 2.6 | 7.0 | 0.00 | 0.00 | 0.00 | 90 | 1019.2 |
| 20260831070503 | 70 | 299 | 2.6 | 7.0 | 0.00 | 0.00 | 0.00 | 90 | 1019.3 |
| 20260831070008 | 70 | 311 | 1.7 | 3.5 | 0.00 | 0.00 | 0.00 | 90 | 1019.3 |
| 20260831065504 | 70 | 316 | 1.7 | 3.5 | 0.00 | 0.00 | 0.00 | 90 | 1019.4 |
| 20260831065004 | 70 | 317 | 0.9 | 2.6 | 0.00 | 0.00 | 0.00 | 90 | 1019.5 |
| 20260831064512 | 70 | 312 | 1.7 | 3.5 | 0.00 | 0.00 | 0.00 | 90 | 1019.5 |
| 20260831064006 | 70 | 311 | 1.7 | 4.3 | 0.00 | 0.00 | 0.00 | 90 | 1019.5 |
| 20260831063507 | 70 | 317 | 0.9 | 4.3 | 0.00 | 0.00 | 0.00 | 90 | 1019.6 |
| 20260831063008 | 70 | 308 | 1.7 | 4.3 | 0.00 | 0.00 | 0.00 | 90 | 1019.6 |
| 20260831062506 | 70 | 323 | 2.6 | 4.3 | 0.00 | 0.00 | 0.00 | 90 | 1019.8 |
| 20260831062008 | 70 | 317 | 1.7 | 6.1 | 0.00 | 0.00 | 0.00 | 90 | 1019.8 |
| 20260831061524 | 70 | 311 | 2.6 | 6.1 | 0.00 | 0.00 | 0.00 | 90 | 1019.8 |
| 20260831061005 | 70 | 304 | 1.7 | 4.3 | 0.00 | 0.00 | 0.00 | 90 | 1019.8 |
| 20260831060507 | 70 | 333 | 1.7 | 3.5 | 0.00 | 0.00 | 0.00 | 90 | 1019.9 |
| 20260831060029 | 70 | 313 | 1.7 | 3.5 | 0.00 | 0.00 | 0.00 | 90 | 1020.0 |
| 20260831055503 | 70 | 291 | 1.7 | 3.5 | 0.00 | 0.00 | 0.00 | 90 | 1019.9 |
| 20260831055012 | 70 | 281 | 1.7 | 3.5 | 0.00 | 0.00 | 0.00 | 89 | 1019.8 |
| 20260831054510 | 71 | 294 | 0.9 | 2.6 | 0.00 | 0.00 | 0.00 | 89 | 1019.9 |
| 20260831054003 | 71 | 305 | 0.9 | 2.6 | 0.00 | 0.00 | 0.00 | 89 | 1019.9 |
| 20260831053503 | 71 | 305 | 0.9 | 2.6 | 0.00 | 0.00 | 0.00 | 89 | 1020.0 |
| 20260831053015 | 71 | 304 | 1.7 | 2.6 | 0.00 | 0.00 | 0.00 | 89 | 1020.0 |
| 20260831052508 | 71 | 296 | 0.9 | 3.5 | 0.00 | 0.00 | 0.00 | 89 | 1020.0 |
| 20260831052007 | 71 | 327 | 0.0 | 4.3 | 0.00 | 0.00 | 0.00 | 90 | 1020.1 |
| 20260831051528 | 70 | 303 | 1.7 | 4.3 | 0.00 | 0.00 | 0.00 | 90 | 1019.9 |
| 20260831051011 | 71 | 331 | 0.0 | 3.5 | 0.00 | 0.00 | 0.00 | 91 | 1019.9 |
| 20260831050510 | 71 | 360 | 0.9 | 3.5 | 0.00 | 0.00 | 0.00 | 91 | 1019.9 |
| 20260831050010 | 71 | 360 | 0.9 | 3.5 | 0.00 | 0.00 | 0.00 | 91 | 1020.0 |
| 20260831045507 | 71 | 317 | 0.9 | 3.5 | 0.00 | 0.00 | 0.00 | 91 | 1019.8 |
| 20260831045016 | 71 | 324 | 0.9 | 3.5 | 0.00 | 0.00 | 0.00 | 91 | 1019.7 |
| 20260831044532 | 71 | 322 | 0.9 | 4.3 | 0.00 | 0.00 | 0.00 | 91 | 1019.7 |
| 20260831044006 | 71 | 302 | 1.7 | 4.3 | 0.00 | 0.00 | 0.00 | 91 | 1019.8 |
| 20260831043510 | 71 | 313 | 1.7 | 4.3 | 0.00 | 0.00 | 0.00 | 91 | 1019.8 |
| 20260831043031 | 71 | 318 | 1.7 | 3.5 | 0.00 | 0.00 | 0.00 | 91 | 1019.9 |
| 20260831042507 | 71 | 317 | 1.7 | 3.5 | 0.00 | 0.00 | 0.00 | 91 | 1020.0 |
| 20260831042007 | 71 | 288 | 0.9 | 3.5 | 0.00 | 0.00 | 0.00 | 91 | 1020.1 |
| 20260831041518 | 71 | 302 | 1.7 | 3.5 | 0.00 | 0.00 | 0.00 | 91 | 1020.2 |
| 20260831041008 | 71 | 289 | 0.9 | 2.6 | 0.00 | 0.00 | 0.00 | 91 | 1020.2 |
| 20260831040504 | 71 | 255 | 0.9 | 2.6 | 0.00 | 0.00 | 0.00 | 91 | 1020.1 |
| 20260831040034 | 71 | 255 | 0.9 | 1.7 | 0.00 | 0.00 | 0.00 | 91 | 1020.1 |
| 20260831035515 | 71 | 255 | 0.9 | 1.7 | 0.00 | 0.00 | 0.00 | 91 | 1020.1 |
| 20260831035013 | 71 | 255 | 0.0 | 1.7 | 0.00 | 0.00 | 0.00 | 90 | 1020.2 |
| 20260831034517 | 71 | 255 | 0.0 | 1.7 | 0.00 | 0.00 | 0.00 | 90 | 1020.3 |
| 20260831034011 | 71 | 255 | 0.0 | 1.7 | 0.00 | 0.00 | 0.00 | 90 | 1020.3 |
| 20260831033515 | 71 | 255 | 0.9 | 2.6 | 0.00 | 0.00 | 0.00 | 90 | 1020.3 |
| 20260831033035 | 71 | 255 | 0.9 | 2.6 | 0.00 | 0.00 | 0.00 | 90 | 1020.4 |
| 20260831032513 | 72 | 281 | 0.9 | 2.6 | 0.00 | 0.00 | 0.00 | 90 | 1020.3 |
| 20260831032014 | 72 | 281 | 0.9 | 2.6 | 0.00 | 0.00 | 0.00 | 89 | 1020.4 |
| 20260831031531 | 72 | 289 | 0.0 | 2.6 | 0.00 | 0.00 | 0.00 | 89 | 1020.5 |
| 20260831031007 | 72 | 286 | 1.7 | 3.5 | 0.00 | 0.00 | 0.00 | 89 | 1020.5 |
| 20260831030506 | 72 | 292 | 1.7 | 5.2 | 0.00 | 0.00 | 0.00 | 89 | 1020.5 |
| 20260831030019 | 72 | 293 | 1.7 | 5.2 | 0.00 | 0.00 | 0.00 | 89 | 1020.4 |
| 20260831025510 | 72 | 289 | 1.7 | 5.2 | 0.00 | 0.00 | 0.00 | 89 | 1020.5 |
| 20260831025010 | 72 | 294 | 1.7 | 5.2 | 0.00 | 0.00 | 0.00 | 89 | 1020.5 |
| 20260831024525 | 72 | 298 | 1.7 | 5.2 | 0.00 | 0.00 | 0.00 | 88 | 1020.6 |
| 20260831024010 | 72 | 276 | 0.9 | 5.2 | 0.00 | 0.00 | 0.00 | 88 | 1020.7 |
| 20260831023516 | 72 | 276 | 1.7 | 3.5 | 0.00 | 0.00 | 0.00 | 88 | 1020.7 |
| 20260831023025 | 72 | 261 | 1.7 | 5.2 | 0.00 | 0.00 | 0.00 | 88 | 1020.7 |
| 20260831022512 | 72 | 261 | 1.7 | 5.2 | 0.00 | 0.00 | 0.00 | 88 | 1020.7 |
| 20260831022016 | 72 | 262 | 1.7 | 4.3 | 0.00 | 0.00 | 0.00 | 88 | 1020.8 |
| 20260831021516 | 72 | 236 | 1.7 | 4.3 | 0.00 | 0.00 | 0.00 | 88 | 1020.8 |
| 20260831021012 | 72 | 244 | 1.7 | 3.5 | 0.00 | 0.00 | 0.00 | 87 | 1020.8 |
| 20260831020516 | 72 | 242 | 1.7 | 3.5 | 0.00 | 0.00 | 0.00 | 87 | 1020.9 |
| 20260831020034 | 72 | 243 | 1.7 | 2.6 | 0.00 | 0.00 | 0.00 | 87 | 1020.9 |
| 20260831015514 | 73 | 248 | 1.7 | 3.5 | 0.00 | 0.00 | 0.00 | 87 | 1020.9 |
| 20260831015009 | 73 | 248 | 1.7 | 3.5 | 0.00 | 0.00 | 0.00 | 86 | 1021.0 |
| 20260831014534 | 73 | 248 | 0.9 | 2.6 | 0.00 | 0.00 | 0.00 | 86 | 1021.0 |
| 20260831014011 | 73 | 241 | 0.9 | 2.6 | 0.00 | 0.00 | 0.00 | 86 | 1020.9 |
| 20260831013514 | 73 | 241 | 0.9 | 2.6 | 0.00 | 0.00 | 0.00 | 86 | 1020.9 |
| 20260831013028 | 73 | 248 | 0.9 | 1.7 | 0.00 | 0.00 | 0.00 | 86 | 1020.9 |
| 20260831012512 | 73 | 242 | 0.0 | 1.7 | 0.00 | 0.00 | 0.00 | 87 | 1021.0 |
| 20260831012008 | 73 | 242 | 0.0 | 1.7 | 0.00 | 0.00 | 0.00 | 87 | 1021.0 |
| 20260831011536 | 73 | 242 | 0.9 | 1.7 | 0.00 | 0.00 | 0.00 | 86 | 1021.0 |
| 20260831011016 | 73 | 242 | 0.9 | 1.7 | 0.00 | 0.00 | 0.00 | 86 | 1020.9 |
| 20260831010518 | 73 | 242 | 0.9 | 3.5 | 0.00 | 0.00 | 0.00 | 86 | 1020.9 |
| 20260831010029 | 73 | 242 | 0.9 | 3.5 | 0.00 | 0.00 | 0.00 | 86 | 1020.9 |
| 20260831005517 | 73 | 231 | 1.7 | 3.5 | 0.00 | 0.00 | 0.00 | 85 | 1020.7 |
| 20260831005018 | 73 | 199 | 0.9 | 2.6 | 0.00 | 0.00 | 0.00 | 85 | 1020.7 |
| 20260831004536 | 73 | 196 | 0.0 | 2.6 | 0.00 | 0.00 | 0.00 | 85 | 1020.7 |
| 20260831004016 | 73 | 196 | 0.0 | 1.7 | 0.00 | 0.00 | 0.00 | 85 | 1020.7 |
| 20260831003512 | 73 | 190 | 0.0 | 1.7 | 0.00 | 0.00 | 0.00 | 84 | 1020.6 |
| 20260831003030 | 74 | 186 | 0.0 | 2.6 | 0.00 | 0.00 | 0.00 | 84 | 1020.5 |